Regional Weather Roundup
Issued by NWS

Home | Current Version | Previous Version | Graphics & Text | Print | Product List | Glossary On
Versions: 1 2 3 4 5 6 7 8 9 10 11 12 13 14 15 16 17 18 19 20 21 22 23 24 25 26 27 28 29 30 31 32 33 34 35 36 37 38 39 40 41 42 43 44 45 46 47 48 49 50
000
ASUS43 KIND 261909
RWRIN

WEATHER ROUNDUP FOR INDIANA
NATIONAL WEATHER SERVICE INDIANAPOLIS IN
300 PM EDT TUE MAY 26 2015

NOTE: "FAIR" INDICATES FEW OR NO CLOUDS BELOW 12,000 FEET WITH NO
SIGNIFICANT WEATHER AND/OR OBSTRUCTIONS TO VISIBILITY.

* - STATION DOES NOT REPORT WEATHER SUCH AS PRECIPITATION OR FOG.

+ - STATION NOT QUALITY CONTROLLED BY THE NATIONAL WEATHER SERVICE.
    USE DATA WITH CAUTION...ESPECIALLY DEWPOINT AND RELATIVE
    HUMIDITY OBSERVATIONS.

INZ001>003-010>013-019-020-262000-
NORTHWEST INDIANA

CITY           SKY/WX    TMP DP  RH WIND       PRES   REMARKS
GARY /AIRPORT/ RAIN      75  66  73 SW29G40   29.86R VSB 1
KNOX *+        CLOUDY    72  70  94 S21G30    29.86S
LA PORTE +     CLOUDY    76  70  83 S12G24    29.86S
MICHIGAN CITY+ CLOUDY    72  70  94 S12       29.85R
MONTICELLO +   CLOUDY    73  70  90 S16G23    29.89F
RENSSELAER +   PTSUNNY   77  68  73 S30G37    29.86F
VALPARAISO     CLOUDY    75  68  78 S25G37    29.85F

$$

LMZ046-743>745-262000-
SOUTHERN LAKE MICHIGAN

STATION/POSITION TIME  TEMP    WIND        PRES    WAVE
                       AIR SEA DIR/SP/G            HT
                 (UTC) (F)     (DEG/KT/KT) (MB)    (FT)
BURNS HARBOR     1900   74     190/ 18/ 26 1010.2F
5NW MICH CITY    1800   70 52  180/ 14/ 21   N/A     2

$$

INZ004-005-014>016-021>024-262000-
NORTH CENTRAL INDIANA

CITY           SKY/WX    TMP DP  RH WIND       PRES   REMARKS
ELKHART        CLOUDY    79  64  61 S17G24    29.85F
GOSHEN         CLOUDY    81  64  56 S21G32    29.86F
LOGANSPORT +   LGT RAIN  75  61  60 SW20G25   29.91S
PERU/GRISSOM   MOSUNNY   74  69  85 S17G24    29.90R
ROCHESTER +    LGT RAIN  81  64  57 S22G32    29.89S
SOUTH BEND     HVY RAIN  73  69  87 S12G20    29.86F FOG
WARSAW +       CLOUDY    81  63  54 S13G28    29.88F

$$

INZ006>009-017-018-025>027-262000-
NORTHEAST INDIANA

CITY           SKY/WX    TMP DP  RH WIND       PRES   REMARKS
ANGOLA *+      PTSUNNY   81  75  83 S15       29.90F
AUBURN +       LGT RAIN  81  63  54 S6        29.91F
FORT WAYNE     CLOUDY    82  63  52 S24G31    29.91F
HUNTINGTON +   CLOUDY    81  63  54 S9G25     29.90F

$$

INZ028-029-035-036-043>045-051>053-262000-
WEST CENTRAL INDIANA

CITY           SKY/WX    TMP DP  RH WIND       PRES   REMARKS
CRAWFORDSVL +  CLOUDY    75  59  57 S21G33    29.91S
GREENCASTLE +  PTSUNNY   73  61  64 S9G16     29.94S
LAFAYETTE      CLOUDY    75  67  76 S13G24    29.89F
TERRE HAUTE    PTSUNNY   79  63  57 SW20G29   29.92S

$$

INZ030>032-037>040-046>048-054>057-064-065-262000-
CENTRAL INDIANA

CITY           SKY/WX    TMP DP  RH WIND       PRES   REMARKS
ANDERSON       RAIN      75  61  60 S17G40    29.97F
CP ATTERBURY + HVY RAIN  68  64  88 SW13G20   29.97F
COLUMBUS       LGT RAIN  68  64  88 S17G25    29.99R FOG
FISHERS *+     CLOUDY    70  68  94 S12G17    29.95
FRANKFORT +    CLOUDY    78  66  66 S20G25    29.94R
GREENWOOD *+   CLOUDY    70  66  88 S14G20    29.97R
INDIANAPOLIS   CLOUDY    73  65  75 S20G26    29.94R
-EAGLE CREEK   CLOUDY    76  63  64 S14G29    29.93F
KOKOMO *+      CLOUDY    73  70  88 SW16      29.91S
MARION +       CLOUDY    78  62  58 SW17      29.93F HAZE
MT COMFORT *+  CLOUDY    68 N/A N/A SW10G20   29.97R
SHELBYVILLE    TSTM      72  67  84 SW18G28   29.98R
ZIONSVILLE +   CLOUDY    78  64  63 SW20G26   29.94S

$$

INZ033-034-041-042-049-050-058-059-262000-
EAST CENTRAL INDIANA

CITY           SKY/WX    TMP DP  RH WIND       PRES   REMARKS
MUNCIE         CLOUDY    83  62  49 S23G32    29.93F

$$

INZ060-061-067>069-081>083-085>088-262000-
SOUTHWEST INDIANA

CITY           SKY/WX    TMP DP  RH WIND       PRES   REMARKS
EVANSVILLE     PTSUNNY   78  63  59 SW24G41   29.98F
HUNTINGBURG *+ CLOUDY    75  66  73 S15       29.99S
WASHINGTON +   CLOUDY    79  58  48 SW18G26   29.95S

$$

INZ062-063-066-070>080-084-089>092-262000-
SOUTH CENTRAL AND SOUTHEAST INDIANA

CITY           SKY/WX    TMP DP  RH WIND       PRES   REMARKS
BLOOMINGTON    PTSUNNY   74  65  73 S10       29.97S
MADISON *+     CLOUDY    79  63  57 S13       30.01F
NORTH VERNON + CLOUDY    77  68  73 S17G23    29.99S
SEYMOUR +      PTSUNNY   82  64  54 SW23G32   29.97F

$$



USA.gov is the U.S. government's official web portal to all federal, state and local government web resources and services.